Location: Ottawa
(45.4167°N, 75.7000°W)
Time: 05:31:08
(UTC-05:00)

OTV 5 (USA 277) - Pass Details

Date: 12 October 2017
Orbit: 404 x 417 km, 43.0° (Epoch: 07 September)

Event Time Altitude Azimuth Distance (km) Brightness Sun altitude
Rises 19:38:08 0° 241° (WSW) 2,349 ? -14.1°
Reaches altitude 10° 19:40:19 10° 233° (SW) 1,488 ? -14.5°
Maximum altitude 19:43:28 38° 164° (SSE) 657 ? -15.0°
Enters shadow 19:44:25 30° 125° (SE) 771 ? -15.2°
